Theta_e
347 347 347 346 345 344 347 348 348 349 348 349 347 347 346 346 345 345 345 345 344 334 332 334 334 335 344 339 344 343 342 341 340 340 339 339 340 341 341 341 341 342 342 343 343 343 341 340 342 343 345 347 347 334 328 328 329 332 329 331 337 330
345 346 347 347 346 345 345 347 342 341 341 344 346 347 342 339 347 338 345 340 336 340 335 332 334 345 340 341 342 344 343 343 343 343 342 341 342 341 342 342 342 342 342 343 343 333 334 337 339 341 343 343 337 334 331 330 330 328 331 330 334 333
344 345 346 346 346 344 343 341 340 340 343 346 345 345 339 342 334 335 336 336 340 336 337 336 339 342 345 345 342 344 344 344 344 345 345 345 344 344 343 343 343 343 342 342 332 328 329 330 330 339 340 334 333 334 333 331 331 331 331 330 332 336
344 345 345 345 345 343 341 340 339 338 339 338 336 341 336 337 337 336 336 336 338 337 339 337 347 349 350 342 338 346 345 344 346 346 344 343 343 343 344 342 341 341 338 332 326 326 328 328 328 330 330 331 332 333 333 332 330 332 332 331 334 337
344 344 344 344 345 343 341 339 338 337 335 334 335 334 335 334 335 335 334 337 336 339 340 338 336 336 334 334 332 333 334 335 336 334 342 334 334 336 335 333 331 333 324 323 324 324 325 325 327 327 328 329 331 332 333 333 332 332 332 330 333 339
343 343 344 344 344 344 343 339 338 336 336 334 335 334 334 333 333 334 335 337 340 338 338 338 336 335 337 334 334 333 334 333 333 336 337 336 334 334 334 333 332 332 328 324 323 324 324 330 327 326 327 328 330 332 333 332 332 331 331 329 331 340
341 342 343 344 343 344 341 339 338 338 336 334 333 334 334 333 333 334 336 340 336 333 332 334 334 334 332 333 333 334 335 335 334 333 338 337 335 335 333 333 332 330 327 325 325 325 325 326 325 326 327 328 330 333 333 333 331 329 330 330 333 339
340 340 341 342 342 341 339 338 338 342 339 338 336 334 333 333 335 336 339 338 338 332 331 330 330 331 331 331 333 334 334 335 335 335 337 336 333 333 333 333 332 333 332 332 332 331 331 331 329 327 329 329 329 329 329 328 329 330 330 329 330 336
339 339 339 341 340 339 338 337 337 336 336 341 335 333 333 334 334 336 338 339 340 332 331 330 329 331 331 330 333 335 336 335 333 335 335 334 334 334 333 332 332 332 331 331 329 330 333 331 328 328 327 329 329 328 327 328 328 328 328 329 329 333
339 338 338 339 338 337 335 334 333 333 332 337 333 335 335 335 335 336 335 338 337 332 330 330 329 329 330 331 333 333 334 332 333 334 333 335 333 332 330 330 330 330 331 329 329 331 332 331 330 330 329 329 330 330 329 329 331 330 330 329 330 333
338 339 337 337 336 335 335 333 334 335 338 336 336 337 336 335 334 334 336 337 336 337 332 332 331 330 330 331 331 332 334 333 334 333 332 334 334 332 330 329 330 330 329 328 329 328 330 330 329 330 331 331 331 331 332 331 331 332 332 330 329 330
338 337 336 335 336 334 334 336 338 338 336 336 336 334 335 335 337 334 336 335 335 334 334 332 332 332 332 330 331 331 333 334 331 331 333 332 333 332 331 330 332 331 330 328 327 328 329 328 328 330 330 331 331 331 331 331 331 332 332 332 329 330
337 336 334 334 335 336 337 338 338 336 336 336 336 335 335 334 334 333 332 334 333 335 333 332 332 332 334 329 330 331 332 332 332 332 333 332 331 330 331 329 329 329 330 328 330 330 331 328 328 329 329 330 330 331 331 331 331 331 331 331 331 331
337 335 335 335 336 336 337 337 336 335 337 336 335 335 335 333 335 333 333 333 333 334 334 335 331 330 332 330 329 331 332 334 334 332 332 332 331 330 330 329 329 329 332 328 328 328 328 327 328 327 328 329 329 330 330 330 330 330 330 331 331 331
338 336 337 336 336 336 336 336 335 335 335 334 334 333 332 332 332 333 333 332 334 335 334 333 333 331 331 331 331 331 332 333 333 332 332 331 330 330 329 329 329 330 328 328 327 328 326 325 326 327 327 328 328 329 329 329 329 330 331 330 330 330
337 336 336 337 336 336 334 334 335 336 333 333 333 332 332 333 333 333 334 333 334 334 332 332 334 331 330 331 331 331 332 333 332 331 330 330 330 329 327 327 329 328 327 325 325 324 324 324 325 326 327 327 326 328 327 327 329 329 330 327 325 325
335 335 336 336 334 333 333 333 333 332 332 333 333 334 334 333 332 331 332 333 335 337 334 333 332 331 331 332 331 330 330 331 331 330 328 327 327 327 325 327 326 328 325 323 322 321 322 323 324 325 325 325 325 326 326 327 327 327 326 322 320 320
334 335 334 333 332 332 333 333 332 332 334 332 333 333 333 333 333 333 333 334 335 335 335 335 336 336 334 333 330 329 329 331 331 328 326 325 324 324 323 324 324 325 324 321 320 319 319 321 323 323 323 323 324 324 325 325 325 326 321 318 317 317
333 333 332 332 332 332 331 331 331 331 331 331 331 331 332 332 332 332 330 330 330 330 330 329 332 333 330 328 326 326 326 327 328 325 323 322 322 322 323 323 322 321 322 319 317 317 317 319 321 320 321 321 323 324 323 323 322 320 317 316 316 316
332 332 332 331 331 330 330 330 329 330 330 330 330 330 329 329 328 326 327 326 326 326 327 326 326 327 327 324 322 323 323 323 322 322 321 320 319 320 320 320 321 320 317 317 316 315 315 318 318 314 317 319 320 322 321 321 319 317 314 312 312 312
331 332 330 329 329 329 327 327 328 328 328 329 328 327 327 326 325 324 323 323 323 324 324 324 324 322 321 324 321 320 321 321 321 321 320 318 318 319 319 319 318 320 317 313 312 313 313 316 314 313 313 315 316 320 322 319 316 313 311 309 310 310
332 330 329 329 329 328 327 328 328 328 328 327 326 324 322 322 321 321 321 320 320 320 320 322 323 321 320 320 320 320 319 319 319 319 319 317 317 319 316 316 315 315 316 313 310 312 312 312 310 309 309 312 312 315 319 317 315 311 309 308 308 308
331 329 328 329 328 327 327 329 330 329 326 325 326 324 321 321 321 318 319 319 318 318 319 319 319 321 318 318 317 317 317 316 317 318 315 314 314 313 313 313 313 313 311 312 311 312 310 311 307 309 313 312 308 308 311 312 313 311 308 306 306 307
330 329 328 330 329 328 329 329 329 328 326 323 321 322 320 319 317 316 316 317 317 316 317 317 317 317 316 316 316 316 316 315 315 316 314 312 311 311 311 311 311 312 309 307 306 307 311 309 309 308 307 309 310 308 304 305 306 309 307 305 303 303
330 330 330 331 328 330 331 328 327 326 324 322 321 319 317 316 317 318 316 314 314 315 315 316 316 316 317 314 315 315 315 314 314 313 313 311 310 310 309 309 309 308 307 304 304 305 307 309 308 310 309 307 305 304 303 303 303 303 306 303 302 301
330 330 329 328 330 330 329 325 323 321 319 318 316 316 314 313 313 312 312 313 313 314 314 314 314 315 316 316 314 314 314 313 312 312 312 310 309 309 309 308 308 307 306 306 305 304 303 307 307 307 307 306 306 301 299 300 299 296 303 303 302 300
330 329 328 328 330 330 326 324 323 322 320 318 317 317 317 315 312 312 312 311 311 312 312 313 313 314 314 315 313 313 313 312 312 311 312 309 308 308 308 308 309 307 306 306 304 302 301 302 303 304 304 304 304 303 301 298 295 296 293 297 299 298
330 329 328 328 328 329 326 324 323 321 321 318 317 315 314 313 313 313 310 310 310 310 311 311 311 312 313 314 313 312 312 312 311 311 311 308 307 306 307 307 307 306 306 305 303 301 300 300 299 299 303 301 301 301 299 298 297 296 295 291 291 295
328 327 327 328 328 327 327 324 322 321 319 318 316 315 315 316 312 311 308 308 308 308 309 310 310 310 311 312 314 310 310 310 309 310 312 308 307 307 306 304 303 303 303 303 303 302 300 299 298 297 298 297 298 297 296 296 296 296 293 287 287 289
326 326 326 327 327 326 325 324 321 319 317 316 316 313 312 310 309 308 307 306 306 306 307 308 308 309 309 309 309 310 309 309 309 310 310 306 306 305 304 304 303 302 302 301 301 301 300 299 299 298 297 296 295 294 294 293 293 293 292 292 288 288
326 326 325 326 326 325 324 323 320 319 317 315 313 311 308 307 307 306 305 305 305 305 305 305 307 307 307 308 309 310 308 308 309 311 308 305 304 304 303 302 302 301 301 300 299 299 299 299 298 297 296 296 295 294 292 291 291 292 291 289 289 288
323 323 322 324 325 324 323 322 321 320 317 314 312 309 307 306 306 305 304 304 304 304 304 305 305 305 305 306 307 306 308 306 306 305 304 304 304 303 303 302 301 300 299 299 300 300 297 296 296 296 295 295 295 295 294 293 293 292 291 291 290 288
319 319 319 320 320 320 321 321 321 319 316 314 311 309 308 306 305 305 304 303 303 303 303 303 303 304 304 305 306 305 305 305 304 305 304 304 303 302 302 301 300 299 299 298 298 297 296 296 296 295 294 295 294 294 293 294 294 293 292 292 291 288
315 315 316 316 316 317 318 319 319 317 315 313 310 309 308 306 306 305 305 304 303 303 302 302 303 303 303 305 305 305 305 304 305 305 305 304 303 302 301 300 299 298 298 297 297 296 296 296 296 295 295 294 294 293 293 293 293 292 291 291 289 289
313 313 313 313 313 313 314 315 315 315 313 312 311 309 307 307 305 305 304 304 303 303 303 303 303 303 305 303 304 303 303 303 303 303 303 303 303 302 302 301 300 299 298 297 297 297 296 295 295 294 294 295 295 294 293 293 292 292 292 291 291 290
312 311 312 312 311 312 312 312 312 311 311 312 312 309 308 307 305 305 304 304 303 302 303 302 303 303 303 303 302 302 302 302 302 302 302 302 301 301 300 299 298 298 297 300 296 295 295 295 294 294 294 294 294 293 294 293 293 292 292 292 292 291
310 310 310 310 310 310 311 311 310 310 310 309 308 307 306 305 305 306 305 304 303 302 302 302 303 303 302 302 301 301 301 301 301 301 301 301 301 300 300 299 298 297 296 296 297 295 295 294 294 294 294 294 293 293 293 293 293 293 292 292 292 291
Wind_Speed
7 7 6 5 5 6 8 12 9 10 10 9 8 7 7 6 5 5 4 4 3 1 1 1 2 1 1 1 2 1 1 0 1 2 3 4 4 5 6 6 6 7 8 7 8 9 10 11 9 11 11 11 11 3 1 1 3 1 2 3 4 4
7 8 7 5 4 4 4 8 5 4 4 5 6 7 4 2 4 0 2 1 1 1 1 1 1 3 1 1 1 2 1 1 1 2 2 2 3 4 5 6 7 7 7 7 7 5 5 7 10 10 10 10 6 5 3 2 3 2 2 3 3 4
8 9 9 7 5 4 4 3 3 3 3 5 4 4 2 2 1 1 0 1 1 2 1 2 2 3 2 4 3 4 2 1 1 2 2 3 3 4 5 5 6 7 8 7 3 4 4 5 6 8 8 6 5 5 4 3 3 4 3 3 3 6
9 10 8 6 5 5 4 3 3 3 3 3 2 3 2 1 1 1 1 2 2 2 2 2 5 8 4 1 2 3 4 4 4 3 4 2 3 3 3 4 5 6 5 3 3 3 4 5 5 5 5 5 5 5 5 3 3 5 5 4 4 8
9 9 9 7 7 5 5 4 3 3 2 2 2 3 3 1 1 2 2 2 2 2 3 2 1 1 2 1 1 2 2 3 2 3 4 3 2 3 2 2 2 2 2 3 4 4 4 5 5 5 5 5 5 5 5 5 3 4 5 3 4 8
8 9 8 7 6 7 7 5 4 4 3 1 2 1 2 2 2 2 2 2 1 1 1 0 1 1 1 0 0 1 3 2 2 3 2 4 3 3 3 2 2 2 2 2 3 3 3 3 5 5 5 5 5 4 5 5 4 5 5 4 4 8
7 7 7 6 6 6 6 5 5 4 4 3 2 1 1 1 2 2 2 2 2 0 1 0 1 1 1 1 1 1 2 2 2 2 3 3 3 2 3 3 2 2 2 2 2 2 3 3 3 4 4 5 4 4 3 4 4 4 5 5 4 8
6 5 5 6 6 6 5 5 5 4 4 4 3 2 1 1 0 0 1 1 1 1 2 2 1 1 2 2 2 2 2 1 1 2 2 2 2 2 2 2 3 4 4 3 3 3 3 3 3 3 3 4 4 4 4 4 4 4 5 5 4 6
7 8 6 7 7 5 5 4 4 4 4 3 2 1 1 0 1 0 0 1 2 2 3 3 2 2 2 3 3 3 3 2 2 2 1 2 1 3 4 4 4 4 4 4 3 3 2 2 2 2 1 2 2 2 3 3 3 3 4 4 4 5
8 8 7 7 5 4 5 4 3 3 2 2 2 3 2 3 2 1 1 1 1 2 3 3 2 2 3 3 3 3 2 2 4 3 4 4 2 4 3 3 3 2 3 3 3 3 3 4 4 3 3 3 2 3 2 2 3 4 4 3 3 4
6 7 7 6 5 4 4 4 3 3 3 3 4 4 4 4 4 1 0 0 1 2 2 3 2 2 2 3 3 3 4 3 4 4 2 3 2 3 2 2 1 0 0 0 1 1 2 3 4 5 4 4 5 5 6 6 5 5 5 6 4 4
7 7 7 6 5 5 5 4 4 4 4 5 5 4 4 4 4 2 1 1 2 3 2 2 3 2 2 2 3 3 3 4 3 2 3 3 3 2 2 2 1 0 0 1 1 3 3 4 4 4 4 4 4 4 5 5 5 5 5 5 6 5
5 5 6 6 6 5 5 5 5 5 5 5 5 4 4 4 4 3 2 2 2 2 2 2 2 2 2 2 1 2 3 3 3 3 3 2 3 3 3 3 2 1 2 3 5 6 4 4 4 5 4 3 4 4 3 4 5 5 5 5 6 6
5 6 6 5 5 5 5 5 5 5 5 5 4 4 4 4 5 4 3 3 3 2 2 2 1 2 3 3 2 3 3 4 4 3 3 4 4 4 4 4 3 3 4 5 6 5 5 6 6 5 5 5 4 5 5 5 5 5 5 6 6 6
5 6 6 6 6 6 5 6 5 5 4 4 4 4 4 4 5 4 3 3 2 2 2 2 1 3 3 3 4 4 5 4 4 3 5 4 4 4 4 4 4 4 4 6 5 6 5 5 5 6 6 5 6 6 5 6 5 6 7 6 7 8
5 7 7 7 7 7 6 5 5 5 5 4 5 4 4 4 5 4 4 3 2 2 2 1 2 3 4 4 4 5 4 4 3 4 4 4 5 5 3 3 3 4 6 7 6 7 5 5 5 5 5 5 5 5 5 5 6 6 6 7 8 9
7 8 8 8 7 6 6 5 5 5 5 6 5 5 4 4 5 4 4 3 2 3 1 0 1 2 4 5 5 4 4 3 3 4 5 5 5 3 2 3 5 6 6 6 7 7 7 6 5 5 4 5 5 5 6 6 6 6 6 9 9 9
6 7 7 8 7 7 6 6 6 6 6 7 6 5 4 5 5 4 4 4 4 4 3 3 3 3 5 4 4 4 4 4 4 5 4 4 3 1 2 3 6 7 7 7 6 6 7 6 5 6 5 6 6 6 6 7 7 7 8 9 9 10
7 7 7 7 8 7 7 7 7 7 7 7 5 5 4 5 5 5 5 4 4 4 4 4 5 5 5 4 5 5 5 4 3 2 3 3 3 3 4 5 6 6 6 6 5 4 4 5 5 4 4 5 4 6 6 7 7 8 9 8 9 8
4 6 6 6 6 6 6 6 8 7 8 6 6 6 6 6 6 6 5 5 5 4 4 4 5 4 5 5 5 5 5 3 2 3 5 6 5 5 4 5 6 5 4 5 6 6 6 5 4 2 3 4 4 5 8 8 9 9 8 9 8 8
4 5 7 7 6 7 7 6 6 6 7 5 6 6 6 5 6 6 5 5 5 5 4 4 4 4 5 5 5 5 4 3 3 5 6 5 2 3 4 3 3 5 5 7 7 7 8 3 4 5 4 4 4 3 7 9 10 9 10 8 7 9
4 3 3 5 6 5 4 5 6 6 7 5 6 6 6 5 5 5 5 5 5 4 4 5 4 4 5 6 6 6 5 5 4 5 4 2 3 5 7 7 3 5 5 7 6 7 8 3 5 2 2 5 5 3 4 8 10 9 9 9 9 9
5 4 3 4 6 7 6 5 7 5 7 6 4 4 5 5 5 6 6 5 4 4 5 5 5 5 6 6 6 6 5 4 4 2 4 5 6 8 7 7 7 4 4 4 5 7 8 6 2 1 2 3 3 3 2 4 5 8 9 9 9 10
5 4 4 5 7 7 8 8 8 7 6 6 6 5 6 5 5 6 7 5 5 4 5 5 5 5 6 6 5 5 4 4 4 3 5 6 8 9 8 7 7 6 3 6 5 7 8 8 7 2 4 3 0 2 3 4 5 2 6 10 12 11
5 5 5 8 9 8 10 9 9 8 9 8 5 5 5 5 4 4 5 6 5 5 5 5 5 6 6 6 5 4 5 5 6 6 6 8 8 7 7 6 6 7 6 3 5 4 8 9 11 9 3 3 3 4 1 3 5 1 4 7 10 11
5 5 6 8 9 9 9 11 10 9 8 6 5 4 4 4 3 4 4 2 5 5 5 5 5 5 5 5 6 6 6 7 7 7 7 7 7 7 8 8 6 5 6 5 5 6 6 7 10 11 11 8 4 2 2 3 3 2 3 4 6 9
6 5 6 7 8 9 9 8 9 8 7 7 7 3 3 4 4 4 4 5 5 5 5 5 5 5 6 6 7 7 7 7 7 6 6 7 8 7 6 5 5 7 6 5 6 9 7 4 4 9 8 8 9 7 4 4 2 2 4 5 6 7
6 6 5 6 7 8 10 8 8 7 6 6 5 6 5 4 3 3 6 5 5 5 5 5 5 6 6 6 6 7 7 7 7 6 7 7 7 5 6 6 6 7 8 8 8 9 8 8 7 4 5 8 7 6 7 7 4 1 1 3 4 1
5 6 6 7 8 6 8 8 8 8 7 5 6 6 5 4 5 4 6 5 5 5 5 5 5 6 6 6 6 6 6 7 7 7 6 7 7 7 8 8 9 10 10 9 9 7 9 8 9 7 6 7 5 6 5 5 5 3 5 4 2 5
6 5 5 6 7 7 7 8 8 8 10 7 6 6 4 5 5 4 6 5 4 5 5 5 5 5 6 5 6 6 6 7 6 6 6 7 8 9 8 9 10 9 10 10 9 10 10 8 8 8 8 6 8 6 6 7 9 9 4 6 3 7
6 5 5 6 7 8 7 7 8 9 10 10 8 8 7 6 5 5 6 4 4 4 3 5 5 5 5 5 6 6 6 6 6 6 7 8 8 8 8 9 9 11 11 11 9 10 11 10 8 9 9 8 8 8 7 7 6 7 6 5 7 7
6 6 5 6 7 7 7 7 8 10 10 9 9 7 8 7 6 6 5 5 3 4 3 4 5 6 5 5 5 6 6 7 7 7 8 7 8 8 8 9 9 9 9 9 9 10 9 10 9 8 8 7 8 7 7 7 5 6 6 5 3 5
7 5 6 6 7 6 7 7 8 9 9 8 7 8 8 7 6 7 6 5 5 5 3 5 5 5 3 4 5 6 7 7 7 7 8 8 8 9 9 9 9 10 10 10 9 9 9 9 8 8 7 6 7 7 7 5 5 5 5 3 4 7
8 5 6 6 7 7 7 7 8 9 8 8 8 8 7 8 6 5 6 5 5 5 5 4 4 4 3 4 5 5 6 7 7 8 9 9 9 9 9 9 9 10 9 8 9 9 9 8 8 7 5 7 7 7 6 6 5 6 6 6 6 6
9 6 7 7 7 8 7 8 8 8 8 7 8 7 6 6 7 7 5 6 5 4 5 4 5 3 3 5 5 6 7 8 7 8 8 9 9 9 9 9 9 9 9 8 9 9 8 8 8 7 7 6 6 6 6 6 6 6 5 5 5 5
9 7 7 7 7 8 8 7 8 9 9 9 8 7 6 5 5 6 7 7 6 4 5 4 3 4 4 5 7 7 8 8 8 8 8 9 9 8 8 9 9 9 10 6 8 9 7 7 7 7 6 5 7 7 6 6 6 6 6 5 5 5
8 6 7 7 8 8 8 9 8 9 9 9 9 9 8 7 7 5 7 7 6 5 4 4 5 4 5 5 6 7 8 8 8 8 8 9 9 9 8 9 9 9 9 6 7 7 6 7 6 5 6 7 7 7 6 5 6 6 6 5 5 5
Wind_Direction
133 133 136 136 133 137 150 149 152 153 153 149 146 142 146 156 157 160 146 163 143 87 29 351 347 335 278 157 198 215 187 282 23 2 358 349 347 344 342 345 345 337 336 341 342 344 337 335 337 339 340 341 347 34 81 360 338 329 187 200 206 198
142 144 147 141 139 144 152 148 149 151 140 146 145 146 140 162 167 109 172 160 151 192 180 237 270 279 265 289 299 224 200 218 294 338 348 340 336 337 335 334 332 327 325 334 343 347 330 331 335 335 336 341 345 338 358 345 322 311 257 234 219 213
151 154 154 151 145 152 132 143 155 138 143 146 155 136 149 153 69 133 40 207 229 242 212 227 237 236 223 244 260 281 272 266 254 292 309 319 319 316 321 323 326 323 324 334 346 323 318 319 320 325 333 335 322 320 331 340 321 296 266 246 228 224
159 160 158 151 148 136 136 156 145 140 131 127 97 132 153 93 171 213 260 248 265 280 274 254 258 261 270 186 243 297 295 314 324 325 313 332 308 304 321 335 326 325 345 336 321 316 320 312 309 310 311 312 313 311 316 314 297 297 278 255 236 227
161 162 160 157 154 141 151 156 146 145 136 141 142 140 162 177 205 238 251 258 263 272 303 306 351 22 62 40 342 307 317 316 315 310 310 310 307 313 339 329 329 330 329 323 328 317 324 318 313 315 311 307 301 299 302 300 296 293 285 257 251 231
158 163 163 159 150 156 159 164 163 162 151 185 196 176 153 196 230 244 241 249 257 306 323 360 350 24 43 57 267 277 278 278 284 281 300 299 308 321 324 323 325 322 335 310 299 299 297 297 307 314 311 307 299 295 294 299 315 297 281 271 256 244
159 160 159 149 149 158 169 171 163 162 161 196 201 215 227 208 243 248 232 213 162 180 261 124 8 7 353 338 277 270 270 271 271 290 294 277 302 313 308 316 327 332 319 322 317 314 316 308 300 310 315 310 301 299 306 308 305 285 288 282 264 253
157 147 149 154 159 170 164 164 167 171 181 195 178 209 216 258 306 130 191 170 151 182 177 86 44 20 338 345 351 328 317 298 280 280 266 245 268 326 334 350 8 14 13 20 14 354 340 328 324 335 332 327 328 334 325 306 293 298 294 280 266 259
158 156 159 165 175 171 160 153 153 165 179 200 181 170 181 159 115 103 279 168 170 182 104 73 33 8 353 359 340 344 331 334 326 343 9 29 46 54 46 34 33 19 5 0 1 346 341 329 329 334 309 297 292 290 284 282 276 270 276 270 271 272
160 162 163 169 170 156 154 150 154 162 165 180 141 156 147 119 107 77 280 216 165 142 105 95 43 10 15 356 345 330 347 346 29 16 42 53 30 63 58 40 28 13 2 349 347 335 348 340 349 350 349 341 344 336 316 325 329 335 330 313 289 288
162 164 162 165 156 157 145 145 145 145 143 136 138 131 112 108 95 83 303 10 71 71 80 69 56 31 15 11 352 344 4 13 35 13 30 69 51 81 75 76 58 276 288 307 317 314 349 355 350 353 352 354 350 350 351 344 339 338 341 333 317 298
169 156 162 159 150 149 148 142 133 121 118 125 129 123 119 113 109 85 60 44 28 32 48 56 60 49 57 16 360 359 8 26 7 357 22 52 62 55 77 68 57 259 205 130 49 37 14 15 357 343 339 345 341 347 341 336 332 331 328 334 334 320
161 150 157 156 152 146 138 129 129 130 130 133 125 121 120 115 106 99 83 67 42 39 37 51 45 73 63 66 30 19 19 18 6 10 26 36 46 35 41 30 15 338 21 28 34 17 6 15 2 343 335 334 337 338 336 333 330 335 339 336 338 332
156 148 152 146 133 131 131 124 122 131 134 127 121 122 122 116 109 94 82 64 53 35 24 26 79 75 80 84 65 47 23 11 2 12 34 37 40 20 22 17 347 7 21 33 28 13 12 1 346 335 345 339 346 349 345 349 350 343 342 350 345 346
142 144 141 139 134 130 126 128 132 130 125 117 114 115 110 102 88 76 69 64 62 60 32 353 42 86 73 66 54 35 25 8 6 27 48 30 47 27 21 16 347 14 29 33 26 20 12 357 346 345 339 344 350 345 355 357 355 1 6 4 15 20
139 141 141 136 132 130 128 129 124 123 110 103 101 93 92 89 85 73 66 57 52 59 42 352 27 62 67 52 51 51 32 28 26 45 43 33 36 28 7 34 19 39 48 32 22 11 7 356 347 339 336 349 351 353 4 11 17 21 22 36 40 35
143 138 131 124 120 118 121 118 107 98 96 91 89 88 82 85 84 86 74 59 43 57 32 19 34 50 65 51 56 62 43 38 34 53 49 38 39 15 14 64 49 44 55 44 25 6 359 354 342 338 342 359 3 10 31 29 35 38 39 45 38 38
127 127 128 126 124 119 114 105 95 90 88 83 77 75 77 83 82 82 73 57 51 55 62 62 65 63 72 76 68 64 55 44 45 50 53 50 44 7 44 60 65 49 49 47 29 12 351 341 336 339 354 10 7 34 35 39 45 46 45 41 38 37
128 123 118 118 115 106 103 92 84 87 85 81 76 67 74 75 73 73 71 67 59 58 60 61 65 66 72 69 65 57 54 37 42 68 74 60 33 26 49 53 65 59 57 56 45 12 347 321 330 333 5 11 34 48 42 49 50 50 46 42 40 36
119 124 120 114 114 106 102 105 98 86 81 79 79 81 66 75 73 70 65 65 61 57 57 64 67 74 86 83 76 61 59 46 61 76 63 50 32 28 32 54 55 65 59 46 34 10 359 348 325 6 9 28 46 57 52 55 54 51 46 40 36 36
136 142 134 131 125 126 117 90 84 98 101 98 95 87 74 65 70 65 60 56 53 49 51 61 58 65 71 82 78 72 67 46 48 64 64 54 38 50 48 59 75 58 57 52 28 6 357 344 19 359 16 26 27 43 65 60 57 50 45 38 36 40
138 141 126 125 129 108 67 102 121 117 112 98 95 93 90 73 76 74 69 64 55 48 53 55 57 58 67 67 70 64 55 43 43 65 73 73 57 50 42 40 35 65 44 63 48 12 356 11 30 49 351 344 2 13 67 63 61 47 46 41 37 40
148 140 118 108 87 83 102 118 116 120 116 100 57 79 89 81 79 77 67 65 62 55 59 56 52 58 64 58 63 66 59 55 50 67 79 55 46 45 39 38 33 63 56 44 61 27 20 29 37 325 106 76 18 351 319 21 53 54 48 44 40 39
142 127 121 97 89 117 115 104 98 107 94 96 113 91 83 70 64 67 60 52 51 54 55 61 58 68 72 68 71 81 89 74 66 64 76 67 51 46 36 33 33 32 66 66 33 38 27 26 36 21 36 66 249 68 358 345 355 350 52 49 42 34
135 129 116 113 122 127 116 104 102 92 95 93 74 83 77 57 46 66 67 45 33 38 51 53 51 58 71 76 77 83 83 76 69 54 62 64 58 52 47 42 37 47 42 105 77 64 39 34 41 35 86 61 24 30 87 276 327 310 18 45 40 37
123 119 120 129 135 135 130 130 129 125 121 113 112 105 105 115 80 58 66 49 44 37 44 52 45 52 62 73 72 68 67 67 61 56 59 65 63 56 46 44 34 51 55 38 103 70 55 40 48 46 48 62 84 133 304 300 33 313 7 71 55 39
132 126 130 137 142 133 128 132 134 133 134 138 131 85 78 82 94 78 66 56 45 36 35 51 47 48 55 62 66 62 66 66 65 64 63 66 62 58 55 52 45 55 54 56 60 70 50 357 40 43 42 57 63 54 32 43 18 305 347 326 28 22
130 133 136 138 137 140 136 138 127 121 120 122 123 124 119 106 90 86 72 53 50 41 34 36 47 46 50 61 68 66 67 70 72 68 70 66 68 63 66 59 60 61 63 57 59 70 64 39 59 17 24 44 44 50 49 52 31 40 240 285 310 1
125 136 136 140 135 134 135 135 130 126 117 108 115 116 115 102 92 80 80 55 58 47 45 41 46 58 55 64 72 79 75 76 76 73 74 74 69 69 70 69 61 57 59 57 57 64 66 53 50 36 27 22 34 38 41 56 47 33 52 352 286 14
147 135 135 134 131 129 130 128 126 128 127 126 118 103 98 100 91 85 81 65 53 54 49 53 49 57 68 67 75 76 78 78 80 81 77 79 79 73 69 68 64 66 64 66 55 59 65 61 58 51 49 39 40 12 32 24 26 17 27 68 1 329
140 125 128 133 133 133 133 134 133 137 136 135 131 128 120 102 98 82 85 71 64 53 48 58 62 58 64 70 77 80 82 81 79 80 79 78 77 78 73 72 69 67 64 67 66 66 67 61 62 58 51 48 52 49 55 49 17 18 33 7 348 342
131 130 128 132 129 135 138 135 136 139 138 137 137 133 126 123 114 109 107 102 83 69 54 57 59 67 62 72 80 79 79 81 82 82 80 83 80 78 76 74 71 71 69 67 68 70 68 68 64 67 60 53 56 55 51 47 29 30 28 19 4 314
134 134 133 132 131 132 130 135 138 134 128 127 124 124 124 122 130 128 131 122 113 104 89 75 65 76 68 77 86 83 81 84 86 83 86 83 82 80 80 79 77 74 72 70 70 73 74 70 71 70 70 61 61 55 49 37 38 33 21 6 16 355
133 132 129 125 127 124 124 126 127 127 126 125 124 128 131 133 140 134 132 128 123 121 107 104 94 91 99 87 77 85 90 88 88 89 87 86 85 84 83 82 79 78 75 74 74 76 78 77 73 70 70 70 59 54 48 36 34 35 28 21 18 14
124 129 125 125 120 118 118 118 119 121 120 122 126 129 133 138 139 135 130 120 116 111 108 108 102 111 97 93 96 89 89 88 86 85 85 85 85 83 84 84 80 80 76 75 77 78 76 77 73 69 63 65 64 52 43 34 32 32 28 34 30 2
129 130 124 120 117 120 119 118 120 120 123 126 128 125 124 128 130 134 132 125 121 114 110 105 103 101 90 97 92 89 86 87 88 86 87 88 88 89 88 86 82 80 81 77 82 78 77 75 71 67 68 62 60 49 38 32 30 26 28 23 27 23
116 112 115 117 119 119 120 117 117 121 126 128 133 137 138 138 137 134 126 118 115 118 107 104 107 102 100 90 89 91 91 88 86 87 86 87 91 92 90 90 90 90 89 84 86 84 79 76 73 71 67 60 63 55 39 32 30 26 20 19 23 25